Terminal Aerodrome Forecast
Issued by NWS

Home | Current Version | Previous Version | Text Only | Print | Product List | Glossary On
Versions: 1 2 3 4 5 6 7 8 9 10 11 12 13 14 15 16 17 18 19 20 21 22 23 24 25 26 27 28 29 30 31 32 33 34 35 36 37 38
082
FTUS43 KFGF 241449 AAA
TAFDVL
TAF AMD
KDVL 241449Z 2415/2512 32005KT P6SM BKN035
      TEMPO 2415/2416 BKN008
     FM241600 34011KT P6SM SCT030
     FM250800 27006KT P6SM BKN035
     FM251000 27007KT P6SM BKN025=

USA.gov is the U.S. government's official web portal to all federal, state and local government web resources and services.